Location: Banios
(43.0451°N, 0.2335°E)
Time: 08:31:33
(UTC+00:00)

A-11 Canister half - Pass Details

Date: 15 May 2021
Orbit: 1527 x 1681 km, 47.3° (Epoch: 22 June)

Event Time Altitude Azimuth Distance (km) Brightness Sun altitude
Rises 08:21:02 0° 230° (SW) 4,696 11.3 39.2°
Reaches altitude 10° 08:24:03 10° 228° (SW) 3,730 10.8 39.7°
Maximum altitude 08:33:25 70° 147° (SSE) 1,671 10.3 41.4°
Drops below altitude 10° 08:43:08 10° 67° (ENE) 3,859 11.8 43.1°
Sets 08:46:19 0° 65° (ENE) 4,867 12.1 43.7°
